Time,TemperatureF,DewpointF,PressureIn,WindDirection,WindDirectionDegrees,WindSpeedMPH,WindSpeedGustMPH,Humidity,HourlyPrecipIn,Conditions,Clouds,dailyrainin,SoftwareType,DateUTC
2013-05-12 00:09:00,61.9,61.3,29.88,SE,135,0.0,-999.0,98,-99.99,,,0.00,Acu-Link.com,2013-05-12 07:09:00,
2013-05-12 00:24:00,62.2,61.6,29.88,SSE,157,0.0,-999.0,98,-99.99,,,0.00,Acu-Link.com,2013-05-12 07:24:00,
2013-05-12 00:39:00,61.3,60.7,29.89,West,270,0.0,-999.0,98,-99.99,,,0.00,Acu-Link.com,2013-05-12 07:39:00,
2013-05-12 00:54:00,61.5,60.9,29.89,SSW,202,0.0,-999.0,98,-99.99,,,0.00,Acu-Link.com,2013-05-12 07:54:00,
2013-05-12 01:10:00,61.2,60.6,29.89,West,270,0.0,-999.0,98,-99.99,,,0.00,Acu-Link.com,2013-05-12 08:10:00,
2013-05-12 01:25:00,60.8,60.2,29.89,West,270,0.0,-999.0,98,-99.99,,,0.00,Acu-Link.com,2013-05-12 08:25:00,
2013-05-12 01:40:00,60.8,60.2,29.89,SSW,202,0.0,-999.0,98,-99.99,,,0.00,Acu-Link.com,2013-05-12 08:40:00,
2013-05-12 01:56:00,60.1,59.5,29.89,WNW,292,0.0,-999.0,98,-99.99,,,0.00,Acu-Link.com,2013-05-12 08:56:00,
2013-05-12 02:11:00,59.9,59.3,29.88,ENE,67,0.0,-999.0,98,-99.99,,,0.00,Acu-Link.com,2013-05-12 09:11:00,
2013-05-12 02:26:00,59.5,58.9,29.89,ENE,67,0.0,-999.0,98,-99.99,,,0.00,Acu-Link.com,2013-05-12 09:26:00,
2013-05-12 02:41:00,59.4,58.8,29.88,East,90,0.0,-999.0,98,-99.99,,,0.00,Acu-Link.com,2013-05-12 09:41:00,
2013-05-12 02:56:00,59.0,58.4,29.89,SSW,202,0.0,-999.0,98,-99.99,,,0.00,Acu-Link.com,2013-05-12 09:56:00,
2013-05-12 03:11:00,58.5,57.9,29.88,ENE,67,0.0,-999.0,98,-99.99,,,0.00,Acu-Link.com,2013-05-12 10:11:00,
2013-05-12 03:26:00,58.1,57.5,29.88,SSW,202,0.0,-999.0,98,-99.99,,,0.00,Acu-Link.com,2013-05-12 10:26:00,
2013-05-12 03:41:00,57.7,57.1,29.89,SE,135,0.0,-999.0,98,-99.99,,,0.00,Acu-Link.com,2013-05-12 10:41:00,
2013-05-12 03:56:00,57.0,56.4,29.89,WNW,292,0.0,-999.0,98,-99.99,,,0.00,Acu-Link.com,2013-05-12 10:56:00,
2013-05-12 04:12:00,57.4,56.8,29.88,WNW,292,0.0,-999.0,98,-99.99,,,0.00,Acu-Link.com,2013-05-12 11:12:00,
2013-05-12 04:27:00,56.7,56.1,29.88,WNW,292,0.0,-999.0,98,-99.99,,,0.00,Acu-Link.com,2013-05-12 11:27:00,
2013-05-12 04:42:00,55.9,55.3,29.89,East,90,0.0,-999.0,98,-99.99,,,0.00,Acu-Link.com,2013-05-12 11:42:00,
2013-05-12 04:57:00,56.3,55.7,29.89,SSW,202,0.0,-999.0,98,-99.99,,,0.00,Acu-Link.com,2013-05-12 11:57:00,
2013-05-12 05:12:00,55.9,55.3,29.88,SSW,202,0.0,-999.0,98,-99.99,,,0.00,Acu-Link.com,2013-05-12 12:12:00,
2013-05-12 05:27:00,55.8,55.2,29.88,SSW,202,0.0,-999.0,98,-99.99,,,0.00,Acu-Link.com,2013-05-12 12:27:00,
2013-05-12 05:42:00,55.4,54.8,29.89,SSE,157,0.0,-999.0,98,-99.99,,,0.00,Acu-Link.com,2013-05-12 12:42:00,
2013-05-12 05:57:00,55.4,54.8,29.89,SSE,157,0.0,-999.0,98,-99.99,,,0.00,Acu-Link.com,2013-05-12 12:57:00,
2013-05-12 06:12:00,55.0,54.4,29.89,SSW,202,0.0,-999.0,98,-99.99,,,0.00,Acu-Link.com,2013-05-12 13:12:00,
2013-05-12 06:28:00,55.6,55.0,29.90,ESE,112,0.0,-999.0,98,-99.99,,,0.00,Acu-Link.com,2013-05-12 13:28:00,
2013-05-12 06:43:00,56.5,55.9,29.90,SSE,157,0.0,-999.0,98,-99.99,,,0.00,Acu-Link.com,2013-05-12 13:43:00,
2013-05-12 06:58:00,57.4,56.8,29.89,WSW,247,0.0,-999.0,98,-99.99,,,0.00,Acu-Link.com,2013-05-12 13:58:00,
2013-05-12 07:13:00,59.2,58.6,29.90,West,270,0.0,-999.0,98,-99.99,,,0.00,Acu-Link.com,2013-05-12 14:13:00,
2013-05-12 07:28:00,61.2,60.6,29.90,WNW,292,0.0,-999.0,98,-99.99,,,0.00,Acu-Link.com,2013-05-12 14:28:00,
2013-05-12 07:43:00,66.4,65.8,29.90,NW,315,0.0,-999.0,98,-99.99,,,0.00,Acu-Link.com,2013-05-12 14:43:00,
2013-05-12 07:58:00,72.7,72.1,29.90,SW,225,0.0,-999.0,98,-99.99,,,0.00,Acu-Link.com,2013-05-12 14:58:00,
2013-05-12 08:13:00,78.1,77.5,29.90,SW,225,0.0,-999.0,98,-99.99,,,0.00,Acu-Link.com,2013-05-12 15:13:00,
2013-05-12 08:28:00,82.4,-0.1,29.90,WNW,292,0.0,-999.0,4,-99.99,,,0.00,Acu-Link.com,2013-05-12 15:28:00,
2013-05-12 08:44:00,86.0,-25.3,29.91,West,270,0.0,-999.0,1,-99.99,,,0.00,Acu-Link.com,2013-05-12 15:44:00,
2013-05-12 08:59:00,90.3,-22.7,29.90,WSW,247,0.0,-999.0,1,-99.99,,,0.00,Acu-Link.com,2013-05-12 15:59:00,
2013-05-12 09:14:00,93.6,26.3,29.90,SE,135,0.0,-999.0,9,-99.99,,,0.00,Acu-Link.com,2013-05-12 16:14:00,
2013-05-12 09:29:00,95.9,91.8,29.90,East,90,1.7,-999.0,88,-99.99,,,0.00,Acu-Link.com,2013-05-12 16:29:00,
2013-05-12 09:44:00,97.0,93.9,29.90,ESE,112,1.1,-999.0,91,-99.99,,,0.00,Acu-Link.com,2013-05-12 16:44:00,
2013-05-12 09:59:00,99.7,99.0,29.90,SW,225,1.7,-999.0,98,-99.99,,,0.00,Acu-Link.com,2013-05-12 16:59:00,
2013-05-12 10:14:00,100.6,99.9,29.90,ESE,112,1.1,-999.0,98,-99.99,,,0.00,Acu-Link.com,2013-05-12 17:14:00,
2013-05-12 10:29:00,102.2,70.9,29.89,NNW,337,2.2,-999.0,37,-99.99,,,0.00,Acu-Link.com,2013-05-12 17:29:00,
2013-05-12 10:44:00,100.8,53.6,29.89,South,180,1.7,-999.0,21,-99.99,,,0.00,Acu-Link.com,2013-05-12 17:44:00,
2013-05-12 11:00:00,98.2,75.7,29.89,ESE,112,2.7,-999.0,49,-99.99,,,0.00,Acu-Link.com,2013-05-12 18:00:00,
2013-05-12 11:15:00,96.6,95.3,29.88,West,270,3.2,-999.0,96,-99.99,,,0.00,Acu-Link.com,2013-05-12 18:15:00,
2013-05-12 11:30:00,97.3,92.4,29.88,SSW,202,3.7,-999.0,86,-99.99,,,0.00,Acu-Link.com,2013-05-12 18:30:00,
2013-05-12 11:45:00,97.9,70.1,29.88,North,0,2.7,-999.0,41,-99.99,,,0.00,Acu-Link.com,2013-05-12 18:45:00,
2013-05-12 12:00:00,98.1,79.7,29.87,WNW,292,3.7,-999.0,56,-99.99,,,0.00,Acu-Link.com,2013-05-12 19:00:00,
2013-05-12 12:15:00,97.7,47.0,29.86,West,270,4.2,-999.0,18,-99.99,,,0.00,Acu-Link.com,2013-05-12 19:15:00,
2013-05-12 12:30:00,97.9,51.3,29.87,WNW,292,4.2,-999.0,21,-99.99,,,0.00,Acu-Link.com,2013-05-12 19:30:00,
2013-05-12 12:45:00,99.5,89.7,29.86,West,270,4.7,-999.0,74,-99.99,,,0.00,Acu-Link.com,2013-05-12 19:45:00,
2013-05-12 13:00:00,98.8,97.1,29.85,SSW,202,5.8,-999.0,95,-99.99,,,0.00,Acu-Link.com,2013-05-12 20:00:00,
2013-05-12 13:16:00,97.5,-18.5,29.85,SSW,202,3.7,-999.0,1,-99.99,,,0.00,Acu-Link.com,2013-05-12 20:16:00,
2013-05-12 13:31:00,98.2,68.9,29.84,West,270,5.3,-999.0,39,-99.99,,,0.00,Acu-Link.com,2013-05-12 20:31:00,
2013-05-12 13:46:00,97.5,96.8,29.84,West,270,4.7,-999.0,98,-99.99,,,0.00,Acu-Link.com,2013-05-12 20:46:00,
2013-05-12 14:01:00,96.6,81.4,29.84,WNW,292,5.8,-999.0,62,-99.99,,,0.00,Acu-Link.com,2013-05-12 21:01:00,
2013-05-12 14:16:00,93.2,-21.0,29.83,WNW,292,3.7,-999.0,1,-99.99,,,0.00,Acu-Link.com,2013-05-12 21:16:00,
2013-05-12 14:31:00,93.7,-20.7,29.83,WSW,247,4.2,-999.0,1,-99.99,,,0.00,Acu-Link.com,2013-05-12 21:31:00,
2013-05-12 14:46:00,96.1,-19.3,29.83,WSW,247,4.7,-999.0,1,-99.99,,,0.00,Acu-Link.com,2013-05-12 21:46:00,
2013-05-12 15:01:00,95.4,-19.7,29.82,NW,315,6.3,-999.0,1,-99.99,,,0.00,Acu-Link.com,2013-05-12 22:01:00,
2013-05-12 15:16:00,95.7,-19.6,29.81,West,270,5.3,-999.0,1,-99.99,,,0.00,Acu-Link.com,2013-05-12 22:16:00,
2013-05-12 15:32:00,96.8,-18.9,29.80,WNW,292,8.3,-999.0,1,-99.99,,,0.00,Acu-Link.com,2013-05-12 22:32:00,
2013-05-12 15:47:00,97.3,-18.6,29.80,West,270,4.2,-999.0,1,-99.99,,,0.00,Acu-Link.com,2013-05-12 22:47:00,
2013-05-12 16:02:00,95.2,-19.9,29.80,SW,225,7.8,-999.0,1,-99.99,,,0.00,Acu-Link.com,2013-05-12 23:02:00,
2013-05-12 16:17:00,96.4,-19.2,29.81,NW,315,3.7,-999.0,1,-99.99,,,0.00,Acu-Link.com,2013-05-12 23:17:00,
2013-05-12 16:32:00,94.1,-20.5,29.79,SW,225,8.9,-999.0,1,-99.99,,,0.00,Acu-Link.com,2013-05-12 23:32:00,
2013-05-12 16:47:00,92.8,-21.3,29.80,ESE,112,7.8,-999.0,1,-99.99,,,0.00,Acu-Link.com,2013-05-12 23:47:00,
2013-05-12 17:02:00,95.2,-19.9,29.78,WSW,247,3.7,-999.0,1,-99.99,,,0.00,Acu-Link.com,2013-05-13 00:02:00,
2013-05-12 17:17:00,95.2,-19.9,29.79,West,270,3.2,-999.0,1,-99.99,,,0.00,Acu-Link.com,2013-05-13 00:17:00,
2013-05-12 17:32:00,95.2,-19.9,29.77,South,180,4.2,-999.0,1,-99.99,,,0.00,Acu-Link.com,2013-05-13 00:32:00,
2013-05-12 17:47:00,93.7,-20.7,29.77,WSW,247,4.2,-999.0,1,-99.99,,,0.00,Acu-Link.com,2013-05-13 00:47:00,
2013-05-12 18:03:00,91.4,-22.1,29.76,SW,225,4.2,-999.0,1,-99.99,,,0.00,Acu-Link.com,2013-05-13 01:03:00,
2013-05-12 18:18:00,90.9,-22.4,29.77,WSW,247,4.2,-999.0,1,-99.99,,,0.00,Acu-Link.com,2013-05-13 01:18:00,
2013-05-12 18:33:00,91.4,-22.1,29.77,WSW,247,2.7,-999.0,1,-99.99,,,0.00,Acu-Link.com,2013-05-13 01:33:00,
2013-05-12 18:48:00,91.6,-22.0,29.76,SW,225,2.7,-999.0,1,-99.99,,,0.00,Acu-Link.com,2013-05-13 01:48:00,
2013-05-12 19:03:00,89.8,-23.0,29.75,SW,225,3.2,-999.0,1,-99.99,,,0.00,Acu-Link.com,2013-05-13 02:03:00,
2013-05-12 19:18:00,88.7,-23.7,29.76,SW,225,1.7,-999.0,1,-99.99,,,0.00,Acu-Link.com,2013-05-13 02:18:00,
2013-05-12 19:33:00,86.0,-25.3,29.74,SSW,202,2.2,-999.0,1,-99.99,,,0.00,Acu-Link.com,2013-05-13 02:33:00,
2013-05-12 19:48:00,83.7,-26.6,29.75,SW,225,2.2,-999.0,1,-99.99,,,0.00,Acu-Link.com,2013-05-13 02:48:00,
2013-05-12 20:03:00,81.1,-28.2,29.75,SW,225,1.7,-999.0,1,-99.99,,,0.00,Acu-Link.com,2013-05-13 03:03:00,
2013-05-12 20:19:00,79.2,-29.3,29.74,South,180,0.0,-999.0,1,-99.99,,,0.00,Acu-Link.com,2013-05-13 03:19:00,
2013-05-12 20:34:00,77.9,66.5,29.74,West,270,0.0,-999.0,68,-99.99,,,0.00,Acu-Link.com,2013-05-13 03:34:00,
2013-05-12 20:49:00,76.8,76.2,29.75,ESE,112,0.0,-999.0,98,-99.99,,,0.00,Acu-Link.com,2013-05-13 03:49:00,
2013-05-12 21:04:00,75.9,75.3,29.76,SE,135,0.0,-999.0,98,-99.99,,,0.00,Acu-Link.com,2013-05-13 04:04:00,
2013-05-12 21:19:00,75.0,74.4,29.76,ESE,112,0.0,-999.0,98,-99.99,,,0.00,Acu-Link.com,2013-05-13 04:19:00,
2013-05-12 21:34:00,73.8,73.2,29.77,East,90,0.0,-999.0,98,-99.99,,,0.00,Acu-Link.com,2013-05-13 04:34:00,
2013-05-12 21:49:00,73.6,72.7,29.77,East,90,0.0,-999.0,97,-99.99,,,0.00,Acu-Link.com,2013-05-13 04:49:00,
2013-05-12 22:04:00,73.0,42.2,29.78,South,180,0.0,-999.0,33,-99.99,,,0.00,Acu-Link.com,2013-05-13 05:04:00,
2013-05-12 22:19:00,72.1,47.1,29.77,SSW,202,0.0,-999.0,41,-99.99,,,0.00,Acu-Link.com,2013-05-13 05:19:00,
2013-05-12 22:35:00,71.2,51.0,29.77,SSE,157,0.0,-999.0,49,-99.99,,,0.00,Acu-Link.com,2013-05-13 05:35:00,
2013-05-12 22:50:00,70.2,66.5,29.77,ESE,112,0.0,-999.0,88,-99.99,,,0.00,Acu-Link.com,2013-05-13 05:50:00,
2013-05-12 23:05:00,69.4,67.0,29.77,SSE,157,0.0,-999.0,92,-99.99,,,0.00,Acu-Link.com,2013-05-13 06:05:00,
2013-05-12 23:20:00,68.4,67.8,29.78,West,270,0.0,-999.0,98,-99.99,,,0.00,Acu-Link.com,2013-05-13 06:20:00,
2013-05-12 23:35:00,68.2,67.6,29.77,West,270,0.0,-999.0,98,-99.99,,,0.00,Acu-Link.com,2013-05-13 06:35:00,
2013-05-12 23:50:00,67.5,66.9,29.77,West,270,0.0,-999.0,98,-99.99,,,0.00,Acu-Link.com,2013-05-13 06:50:00,